Flag for Canada Weather past 2 weeks in Cranbrook, British Columbia, Canada

Now
41 °F

Partly cloudy.


Feels Like: 35 °F
Forecast: 39 / 55 °F
Wind: 10 mph from South

Location: Cranbrook


UV Index: 0 (Low)

Visibility: 25 mi


Pressure: 29.92 "Hg

Humidity: 76%

Dew point: 34 °F

Location of CranbrookLocation

Historic Weather in Cranbrook

°F

Cranbrook temperature yesterday

Maximum temperature yesterday: 54 °F (at 6:00 PM)
Minimum temperature yesterday: 27 °F (at 5:00 AM)
Average temperature yesterday: 40 °F

Past Weeks' High & Low Weather Summary

 TemperatureHumidityPressure
High68 °F (Apr 8, 2:00 PM)93% (Apr 5, 8:00 AM)30.44 "Hg (Apr 5, 8:00 AM)
Low23 °F (Apr 14, 6:00 AM)20% (Apr 14, 5:00 PM)29.68 "Hg (Apr 9, 2:00 AM)
Average43 °F53%29.99 "Hg
* Reported Midnight between Apr 1 and Apr 2 — Midnight between Apr 16 and Apr 17, Cranbrook, Weather by CustomWeather, © 2014

Note: Actual official high and low records may vary slightly from our data, if they occured in-between our weather recording intervals... More about our weather records

Advertising

Historic Weather Conditions — Data for Previous 24 hours

 ConditionsComfort  
Time TempWeatherWind HumidityBarometerVisibility
12:00 AM
Apr 17
43 °FPartly cloudy.10 mph71%29.93 "Hg25 mi
11:00 PM
Apr 16
41 °FPassing clouds.6 mph76%29.94 "Hg25 mi
10:00 PM41 °FPassing clouds.8 mph70%29.95 "Hg25 mi
9:00 PM43 °FBroken clouds.7 mph66%29.95 "Hg25 mi
8:00 PM46 °FBroken clouds.12 mph57%29.95 "Hg25 mi
7:00 PM52 °FPartly sunny.20 mph44%29.94 "Hg25 mi
6:00 PM54 °FPartly sunny.13 mph38%29.93 "Hg25 mi
5:00 PM52 °FPartly sunny.16 mph38%29.93 "Hg25 mi
4:00 PM52 °FScattered showers. Broken clouds.10 mph38%29.94 "Hg25 mi
3:00 PM52 °FScattered showers. Partly sunny.2 mph41%29.93 "Hg25 mi
2:00 PM50 °FPartly sunny.7 mph43%29.96 "Hg25 mi
1:00 PM48 °FMostly cloudy.12 mph46%29.97 "Hg25 mi
12:00 PM46 °FBroken clouds.8 mph53%29.98 "Hg25 mi
11:00 AM43 °FPartly sunny.7 mph66%29.99 "Hg25 mi
10:00 AM37 °FPartly sunny.2 mph65%30.01 "Hg25 mi
9:00 AM32 °FPartly sunny.No wind75%30.01 "Hg25 mi
8:00 AM28 °FPartly sunny.6 mph80%30.01 "Hg25 mi
7:00 AM27 °FPartly cloudy.No wind80%29.99 "Hg25 mi
6:00 AM27 °FPassing clouds.5 mph80%29.99 "Hg25 mi
5:00 AM27 °FPassing clouds.5 mph86%29.98 "Hg25 mi
4:00 AM28 °FPassing clouds.3 mph80%29.98 "Hg25 mi
3:00 AM34 °FPassing clouds.2 mph65%29.96 "Hg25 mi
2:00 AM32 °FPassing clouds.6 mph75%29.96 "Hg25 mi
1:00 AM32 °FPassing clouds.6 mph80%29.95 "Hg25 mi
Weather by CustomWeather, © 2014

See weather overview